Simultaneous Nadir Overpasses (SNOs) Predictions

Prediction of SNOs between GOES-16 and METOP-B Satellite Orbit:

Table of predicted SNOs for the next 14.0 days since TLE Epoch: 7/10/2020
Index Date Time (GOES-16) GOES-16 Lat,Lon METOP-B Lat,Lon Distance(km) Time Diff (sec)
1 07/12/2020 02:43:04 0.02, -75.20 -0.55, -77.77 293.03 80
2 07/13/2020 02:19:44 0.02, -75.21 0.58, -72.78 276.98 80
3 07/14/2020 14:38:35 -0.02, -75.24 0.44, -77.34 239.06 80
4 07/15/2020 14:17:55 -0.02, -75.25 -0.64, -72.34 331.32 80
5 07/17/2020 02:39:34 0.00, -75.25 -0.39, -76.93 192.39 80
6 07/18/2020 02:16:15 0.00, -75.26 0.75, -71.94 378.00 80
7 07/19/2020 14:37:46 0.00, -75.29 0.27, -76.50 137.71 80
8 07/20/2020 14:14:27 -0.00, -75.31 -0.86, -71.51 432.73 80
9 07/22/2020 02:36:06 0.01, -75.31 -0.16, -76.10 90.82 80
10 07/23/2020 02:12:46 0.01, -75.32 0.98, -71.11 479.81 80
11 07/24/2020 14:34:18 -0.02, -75.36 0.05, -75.67 35.22 80
